Location: Skalnate Pleso
(49.1889°N, 20.2450°E)
Time: 21:47:27
(UTC+01:00)

Cosmos 1898 Rocket - Pass Details

Date: 19 November 2019
Orbit: 753 x 785 km, 74.0° (Epoch: 13 December)

Event Time Altitude Azimuth Distance (km) Brightness Sun altitude
Exits shadow 05:11:59 27° 280° (W) 1,440 4.3 -16.5°
Maximum altitude 05:13:16 31° 306° (NW) 1,344 4.3 -16.3°
Drops below altitude 10° 05:17:58 10° 8° (N) 2,339 6.0 -15.6°
Sets 05:20:39 0° 19° (NNE) 3,275 6.9 -15.1°
